Adana, Turkey

4:35 PM EEST on October 01, 2016 (GMT +0300)
Adana

Weather History for LTAF - April, 2013

Change the Weather History Date:

Wednesday, April 3, 2013

  Actual Average Record
Temperature  
Mean Temperature 64 °F -  
Max Temperature 71 °F 67 °F 82 °F (2009)
Min Temperature 57 °F 49 °F 44 °F (2002)
Degree Days  
Heating Degree Days 1    
Growing Degree Days 14 (Base 50)    
Moisture  
Dew Point 57 °F    
Average Humidity 79    
Maximum Humidity 94    
Minimum Humidity 60    
Precipitation  
Precipitation 0.00 in - - ()
Sea Level Pressure  
Sea Level Pressure 29.88 in    
Wind  
Wind Speed 2 mph ()    
Max Wind Speed 7 mph    
Max Gust Speed -    
Visibility 3.2 miles    
Events      
Averages and records for this station are not official NWS values.
T = Trace of Precipitation, MM = Missing Value Source: Averaged Metar Reports

Daily Weather History Graph

Daily Weather History Graph

Search for Another Location

Airport or City:

Trip Planner

Search our weather history database for the weather conditions in past years. The results will help you decide how hot, cold, wet, or windy it might be!

Date:

Astronomy

Apr. 03, 2013 Rise Set
Actual Time 6:21 AM EEST 7:02 PM EEST
Civil Twilight 5:55 AM EEST 7:29 PM EEST
Nautical Twilight 5:24 AM EEST 8:00 PM EEST
Astronomical Twilight 4:52 AM EEST 8:32 PM EEST
Moon 1:35 AM EEST (4/3) 12:01 PM EEST (4/3)
Length of Visible Light 13h 33m
Length of Day
12h 41m
Waning Gibbous, 48% of the Moon is Illuminated
Apr 3
Waning Gibbous
Apr 10
New
Apr 18
First Quarter
Apr 25
Full
May 2
Last Quarter

Hourly Weather History & Observations

Time (EEST) Temp. Dew Point Humidity Pressure Visibility Wind Dir Wind Speed Gust Speed Precip Events Conditions
12:20 AM 60.8 °F 57.2 °F 88% 29.95 in 3.1 mi South 1.2 mph - N/A   Mostly Cloudy
12:50 AM 60.8 °F 59.0 °F 94% 29.95 in 3.1 mi Calm Calm - N/A   Mostly Cloudy
1:20 AM 60.8 °F 59.0 °F 94% 29.92 in 3.1 mi ESE 3.5 mph - N/A   Mostly Cloudy
1:50 AM 60.8 °F 59.0 °F 94% 29.92 in 3.1 mi East 4.6 mph - N/A   Mostly Cloudy
2:20 AM 60.8 °F 57.2 °F 88% 29.92 in 3.1 mi East 1.2 mph - N/A   Mostly Cloudy
2:50 AM 60.8 °F 57.2 °F 88% 29.92 in 3.1 mi Calm Calm - N/A   Mostly Cloudy
3:20 AM 59.0 °F 57.2 °F 94% 29.92 in 3.1 mi WSW 2.3 mph - N/A   Mostly Cloudy
3:50 AM 60.8 °F 57.2 °F 88% 29.92 in 3.1 mi West 3.5 mph - N/A   Mostly Cloudy
4:20 AM 59.0 °F 57.2 °F 94% 29.92 in 3.1 mi Calm Calm - N/A   Mostly Cloudy
4:50 AM 59.0 °F 55.4 °F 88% 29.92 in 3.1 mi Calm Calm - N/A   Mostly Cloudy
5:20 AM 59.0 °F 57.2 °F 94% 29.92 in 3.1 mi ESE 3.5 mph - N/A   Mostly Cloudy
5:50 AM 59.0 °F 55.4 °F 88% 29.92 in 3.1 mi SE 2.3 mph - N/A   Mostly Cloudy
6:20 AM 57.2 °F 55.4 °F 94% 29.92 in 3.1 mi Calm Calm - N/A   Mostly Cloudy
6:50 AM 57.2 °F 55.4 °F 94% 29.92 in 3.1 mi SE 2.3 mph - N/A   Mostly Cloudy
7:20 AM 59.0 °F 57.2 °F 94% 29.92 in 3.1 mi East 4.6 mph - N/A   Mostly Cloudy
7:50 AM 60.8 °F 59.0 °F 94% 29.92 in 3.1 mi Variable 2.3 mph - N/A   Mostly Cloudy
8:20 AM 60.8 °F 59.0 °F 94% 29.95 in 3.1 mi Calm Calm - N/A   Mostly Cloudy
8:50 AM 62.6 °F 59.0 °F 88% 29.95 in 3.1 mi Variable 2.3 mph - N/A   Mostly Cloudy
9:20 AM 62.6 °F 60.8 °F 94% 29.92 in 3.1 mi Variable 2.3 mph - N/A   Mostly Cloudy
9:50 AM 64.4 °F 59.0 °F 83% 29.92 in 3.1 mi Variable 2.3 mph - N/A   Mostly Cloudy
10:20 AM 66.2 °F 57.2 °F 73% 29.92 in 3.1 mi Calm Calm - N/A   Mostly Cloudy
10:50 AM 68.0 °F 57.2 °F 68% 29.92 in 3.7 mi Variable 1.2 mph - N/A   Mostly Cloudy
11:20 AM 68.0 °F 57.2 °F 68% 29.92 in 3.7 mi Variable 1.2 mph - N/A   Mostly Cloudy
11:50 AM 68.0 °F 55.4 °F 64% 29.92 in 3.7 mi WSW 3.5 mph - N/A   Mostly Cloudy
12:20 PM 68.0 °F 57.2 °F 68% 29.92 in 3.7 mi WSW 4.6 mph - N/A   Mostly Cloudy
12:50 PM 69.8 °F 57.2 °F 64% 29.89 in 3.7 mi SW 4.6 mph - N/A   Mostly Cloudy
1:20 PM 69.8 °F 55.4 °F 60% 29.89 in 3.1 mi SSW 4.6 mph - N/A   Haze
1:50 PM 69.8 °F 57.2 °F 64% 29.86 in 3.1 mi SW 3.5 mph - N/A   Haze
2:20 PM 69.8 °F 57.2 °F 64% 29.86 in 3.1 mi Variable 2.3 mph - N/A   Haze
2:50 PM 69.8 °F 57.2 °F 64% 29.86 in 3.1 mi Variable 2.3 mph - N/A   Haze
3:20 PM 69.8 °F 57.2 °F 64% 29.86 in 3.1 mi Calm Calm - N/A   Haze
3:50 PM 71.6 °F 57.2 °F 60% 29.83 in 3.1 mi Calm Calm - N/A   Haze
4:20 PM 69.8 °F 55.4 °F 60% 29.83 in 3.1 mi SSE 3.5 mph - N/A   Haze
4:50 PM 69.8 °F 55.4 °F 60% 29.83 in 3.1 mi Variable 1.2 mph - N/A   Haze
5:20 PM 69.8 °F 57.2 °F 64% 29.83 in 3.1 mi Variable 2.3 mph - N/A   Haze
5:50 PM 69.8 °F 57.2 °F 64% 29.80 in 3.1 mi NE 3.5 mph - N/A   Haze
6:20 PM 69.8 °F 55.4 °F 60% 29.80 in 3.1 mi Calm Calm - N/A   Haze
6:50 PM 66.2 °F 57.2 °F 73% 29.80 in 3.1 mi SSW 6.9 mph - N/A   Mostly Cloudy
7:20 PM 64.4 °F 57.2 °F 77% 29.80 in 3.1 mi SW 6.9 mph - N/A   Mostly Cloudy
7:50 PM 64.4 °F 57.2 °F 77% 29.80 in 3.1 mi WSW 5.8 mph - N/A   Mostly Cloudy
8:20 PM 62.6 °F 57.2 °F 82% 29.83 in 3.1 mi SW 5.8 mph - N/A   Mostly Cloudy
8:50 PM 60.8 °F 55.4 °F 82% 29.83 in 3.1 mi SSW 4.6 mph - N/A   Mostly Cloudy
9:20 PM 60.8 °F 55.4 °F 82% 29.80 in 3.1 mi Variable 2.3 mph - N/A   Mostly Cloudy
9:50 PM 60.8 °F 55.4 °F 82% 29.80 in 3.1 mi Calm Calm - N/A   Mostly Cloudy
10:20 PM 60.8 °F 55.4 °F 82% 29.80 in 3.1 mi Variable 2.3 mph - N/A   Mostly Cloudy
10:50 PM 60.8 °F 55.4 °F 82% 29.80 in 3.1 mi Calm Calm - N/A   Mostly Cloudy
11:20 PM 59.0 °F 55.4 °F 88% 29.77 in 3.1 mi ENE 2.3 mph - N/A   Mostly Cloudy
11:50 PM 59.0 °F 55.4 °F 88% 29.77 in 3.1 mi Calm Calm - N/A   Mostly Cloudy